When you browse on this site, cookies collect data to enhance your experience and personalize the content and advertising you see.
Visit our Privacy Policy to learn more. By continuing to use the site, you agree to this use of cookies and data.
  • In Romania
  • List of Countries
  • For 7 days
  • Water Temperature
  • Satellite Maps
  • Weather Map
  • Weather Widgets
  • user-avatar
    Login

    Hourly Weather Lapszow

    Today, 25 May, Saturday

    Time Temperature Precipitation Wind Pressure Humidity
    00:00 +12°C° 0 mm 2 mps 740 mmHg 92%
    01:00 +12°C° 0 mm 2 mps 740 mmHg 93%
    02:00 +10°C° 0 mm 2 mps 740 mmHg 93%
    03:00 +10°C° 0 mm 2 mps 740 mmHg 93%
    04:00 +9°C° 0 mm 2 mps 740 mmHg 93%
    05:00 +12°C° 0 mm 2 mps 740 mmHg 90%
    06:00 +14°C° 0 mm 2 mps 740 mmHg 86%
    07:00 +14°C° 0 mm 3 mps 740 mmHg 82%
    08:00 +17°C° 0 mm 3 mps 741 mmHg 75%
    09:00 +18°C° 0 mm 3 mps 741 mmHg 68%
    10:00 +20°C° 0 mm 3 mps 741 mmHg 61%
    11:00 +20°C° 0 mm 3 mps 741 mmHg 59%
    12:00 +21°C° 0 mm 3 mps 740 mmHg 57%
    13:00 +22°C° 0 mm 3 mps 740 mmHg 56%
    14:00 +22°C° 0 mm 3 mps 740 mmHg 57%
    15:00 +22°C° 0 mm 3 mps 740 mmHg 58%
    16:00 +22°C° 0 mm 3 mps 740 mmHg 60%
    17:00 +20°C° 0.1 mm 2 mps 740 mmHg 66%
    18:00 +19°C° 0.1 mm 2 mps 740 mmHg 72%
    19:00 +17°C° 0.1 mm 2 mps 740 mmHg 78%
    20:00 +16°C° 0 mm 2 mps 740 mmHg 81%
    21:00 +15°C° 0 mm 1 mps 741 mmHg 84%
    22:00 +14°C° 0 mm 1 mps 741 mmHg 87%
    23:00 +14°C° 0 mm 1 mps 741 mmHg 88%

    Tomorrow, 26 May, Sunday

    Time Temperature Precipitation Wind Pressure Humidity
    00:00 +13°C° 0 mm 1 mps 741 mmHg 89%
    01:00 +13°C° 0 mm 1 mps 741 mmHg 90%
    02:00 +13°C° 0 mm 1 mps 741 mmHg 90%
    03:00 +12°C° 0 mm 1 mps 741 mmHg 90%
    04:00 +12°C° 0 mm 1 mps 741 mmHg 90%
    05:00 +14°C° 0 mm 1 mps 741 mmHg 87%
    06:00 +15°C° 0 mm 2 mps 741 mmHg 84%
    07:00 +17°C° 0 mm 2 mps 742 mmHg 81%
    08:00 +18°C° 0.2 mm 2 mps 741 mmHg 78%
    09:00 +19°C° 0.2 mm 3 mps 741 mmHg 75%
    10:00 +20°C° 0.2 mm 3 mps 741 mmHg 72%
    11:00 +21°C° 0.1 mm 3 mps 741 mmHg 69%
    12:00 +22°C° 0.1 mm 3 mps 741 mmHg 67%
    13:00 +22°C° 0.1 mm 3 mps 741 mmHg 64%
    14:00 +22°C° 0.2 mm 3 mps 741 mmHg 65%
    15:00 +23°C° 0.2 mm 2 mps 740 mmHg 65%
    16:00 +23°C° 0.2 mm 2 mps 740 mmHg 66%
    17:00 +21°C° 0.4 mm 2 mps 740 mmHg 71%
    18:00 +20°C° 0.4 mm 2 mps 740 mmHg 77%
    19:00 +18°C° 0.4 mm 2 mps 740 mmHg 82%
    20:00 +17°C° 0 mm 2 mps 740 mmHg 84%
    21:00 +16°C° 0 mm 2 mps 741 mmHg 87%
    22:00 +15°C° 0 mm 2 mps 741 mmHg 89%
    23:00 +15°C° 0 mm 2 mps 741 mmHg 90%

    Day after tomorrow, 27 May, Monday

    Time Temperature Precipitation Wind Pressure Humidity
    00:00 +15°C° 0 mm 2 mps 741 mmHg 91%
    01:00 +14°C° 0 mm 2 mps 741 mmHg 92%
    02:00 +14°C° 0 mm 2 mps 740 mmHg 92%
    03:00 +14°C° 0 mm 2 mps 740 mmHg 92%
    04:00 +14°C° 0 mm 2 mps 740 mmHg 92%
    05:00 +15°C° 0 mm 2 mps 740 mmHg 89%
    06:00 +17°C° 0 mm 2 mps 740 mmHg 86%
    07:00 +19°C° 0 mm 2 mps 740 mmHg 82%
    08:00 +20°C° 0 mm 2 mps 740 mmHg 76%
    09:00 +22°C° 0 mm 3 mps 740 mmHg 70%
    10:00 +24°C° 0 mm 3 mps 740 mmHg 64%
    11:00 +25°C° 0.1 mm 3 mps 740 mmHg 61%
    12:00 +25°C° 0.1 mm 3 mps 739 mmHg 59%
    13:00 +26°C° 0.1 mm 2 mps 739 mmHg 57%
    14:00 +26°C° 0.3 mm 2 mps 739 mmHg 60%
    15:00 +25°C° 0.3 mm 2 mps 739 mmHg 64%
    16:00 +25°C° 0.3 mm 2 mps 738 mmHg 68%
    17:00 +24°C° 0.3 mm 2 mps 738 mmHg 72%
    18:00 +21°C° 0.3 mm 2 mps 738 mmHg 76%
    19:00 +21°C° 0.3 mm 1 mps 738 mmHg 80%
    20:00 +20°C° 0 mm 1 mps 738 mmHg 81%
    21:00 +19°C° 0 mm 1 mps 738 mmHg 83%
    22:00 +18°C° 0 mm 1 mps 738 mmHg 84%
    23:00 +18°C° 0.7 mm 1 mps 738 mmHg 87%

    28 May, Tuesday

    Time Temperature Precipitation Wind Pressure Humidity
    00:00 +18°C° 0.7 mm 1 mps 738 mmHg 89%
    01:00 +18°C° 0.7 mm 1 mps 738 mmHg 92%
    02:00 +18°C° 1 mm 1 mps 737 mmHg 93%
    03:00 +16°C° 1 mm 1 mps 737 mmHg 94%
    04:00 +16°C° 1 mm 1 mps 737 mmHg 96%
    05:00 +18°C° 0.1 mm 1 mps 737 mmHg 93%
    06:00 +18°C° 0.1 mm 2 mps 736 mmHg 91%
    07:00 +19°C° 0.1 mm 2 mps 736 mmHg 89%
    08:00 +21°C° 0 mm 2 mps 736 mmHg 82%
    09:00 +23°C° 0 mm 2 mps 736 mmHg 75%
    10:00 +25°C° 0 mm 2 mps 736 mmHg 68%
    11:00 +25°C° 0.9 mm 2 mps 736 mmHg 70%
    12:00 +25°C° 0.9 mm 2 mps 735 mmHg 72%
    13:00 +25°C° 0.9 mm 2 mps 735 mmHg 73%
    14:00 +24°C° 2.4 mm 2 mps 735 mmHg 76%
    15:00 +24°C° 2.4 mm 3 mps 734 mmHg 78%
    16:00 +22°C° 2.4 mm 3 mps 734 mmHg 81%
    17:00 +21°C° 0.5 mm 3 mps 734 mmHg 84%
    18:00 +20°C° 0.5 mm 2 mps 734 mmHg 87%
    19:00 +19°C° 0.5 mm 2 mps 734 mmHg 90%
    20:00 +18°C° 1.1 mm 2 mps 735 mmHg 89%
    21:00 +18°C° 1.1 mm 2 mps 735 mmHg 88%
    22:00 +18°C° 1.1 mm 3 mps 735 mmHg 87%
    23:00 +17°C° 0 mm 3 mps 735 mmHg 89%

    29 May, Wednesday

    Time Temperature Precipitation Wind Pressure Humidity
    00:00 +16°C° 0 mm 3 mps 735 mmHg 91%
    01:00 +14°C° 0 mm 3 mps 735 mmHg 92%
    02:00 +14°C° 0.2 mm 3 mps 736 mmHg 94%
    03:00 +14°C° 0.2 mm 3 mps 736 mmHg 95%
    04:00 +14°C° 0.2 mm 3 mps 737 mmHg 97%
    05:00 +14°C° 1.1 mm 4 mps 738 mmHg 96%
    06:00 +13°C° 1.1 mm 5 mps 738 mmHg 95%
    07:00 +13°C° 1.1 mm 6 mps 739 mmHg 94%
    08:00 +11°C° 1.6 mm 6 mps 740 mmHg 94%
    09:00 +12°C° 1.6 mm 5 mps 740 mmHg 93%
    10:00 +10°C° 1.6 mm 5 mps 741 mmHg 93%
    11:00 +12°C° 0.4 mm 5 mps 742 mmHg 91%
    12:00 +12°C° 0.4 mm 4 mps 742 mmHg 90%
    13:00 +12°C° 0.4 mm 4 mps 743 mmHg 88%
    14:00 +13°C° 0.1 mm 3 mps 743 mmHg 87%
    15:00 +13°C° 0.1 mm 3 mps 744 mmHg 87%
    16:00 +14°C° 0.1 mm 2 mps 744 mmHg 86%
    17:00 +14°C° 0 mm 2 mps 745 mmHg 86%
    18:00 +14°C° 0 mm 2 mps 745 mmHg 86%
    19:00 +14°C° 0 mm 2 mps 746 mmHg 85%
    20:00 +13°C° 0 mm 2 mps 746 mmHg 86%
    21:00 +12°C° 0 mm 2 mps 746 mmHg 87%
    22:00 +10°C° 0 mm 3 mps 747 mmHg 88%
    23:00 +9°C° 0 mm 2 mps 747 mmHg 90%

    30 May, Thursday

    Time Temperature Precipitation Wind Pressure Humidity
    00:00 +9°C° 0 mm 2 mps 747 mmHg 91%
    01:00 +8°C° 0 mm 2 mps 748 mmHg 92%
    02:00 +8°C° 0 mm 2 mps 748 mmHg 92%
    03:00 +7°C° 0 mm 2 mps 748 mmHg 92%
    04:00 +7°C° 0 mm 2 mps 748 mmHg 92%
    05:00 +8°C° 0 mm 2 mps 748 mmHg 87%
    06:00 +9°C° 0 mm 2 mps 749 mmHg 81%
    07:00 +10°C° 0 mm 2 mps 749 mmHg 76%
    08:00 +10°C° 0.1 mm 2 mps 749 mmHg 71%
    09:00 +12°C° 0.1 mm 1 mps 749 mmHg 67%
    10:00 +12°C° 0.1 mm 1 mps 749 mmHg 62%
    11:00 +12°C° 0.6 mm 1 mps 748 mmHg 69%
    12:00 +11°C° 0.6 mm 1 mps 748 mmHg 76%
    13:00 +10°C° 0.6 mm 1 mps 747 mmHg 83%
    14:00 +11°C° 0 mm 1 mps 747 mmHg 82%
    15:00 +11°C° 0 mm 1 mps 747 mmHg 81%
    16:00 +11°C° 0 mm 1 mps 747 mmHg 80%
    17:00 +11°C° 0 mm 1 mps 747 mmHg 80%
    18:00 +10°C° 0 mm 0 mps 747 mmHg 80%
    19:00 +10°C° 0 mm 0 mps 746 mmHg 80%
    20:00 +9°C° 0 mm 0 mps 747 mmHg 78%
    21:00 +10°C° 0 mm 1 mps 747 mmHg 76%
    22:00 +10°C° 0 mm 1 mps 747 mmHg 74%
    23:00 +9°C° 0 mm 1 mps 746 mmHg 74%
    Show more